Current weather by "City, St" or "zip code"  
 

Current Conditions: Battle Creek Executive Airport, MI

Mostly Cloudy


41.0 F

Last Updated on Oct 24 2020, 8:53 pm EDT
Humidity: 65%
Wind Speed: NE 4.6 mph
Barometer 30.22 in
Dewpoint: 30.0 F
Visibility: 10.00 mi
Precip: --
Heat Index: NA
Wind Chill: 38 F
Current conditions at:

Battle Creek Executive Airport, MI (KBTL)

Lat: 42.31197 Lon: 85.24144

Local Radar Image active severe weather and emergency alerts image image weather storm and storm spotter reports image weather observation monitoring service image
Local
Radar
Active
Alerts
Storm Reports Obs
Monitoring

Sign-up For Email & Text Message Weather Alert Notification Services



Advertise Here

Observation History for Battle Creek Executive Airport, MI


Time Wind
(mph)
Vis
(mi)
Weather Precip (in) Temperature (F) Relative
Humidity
Wind
Chill
(F)
Heat
Index
(F)
Pressure
Air Dwpt altimeter
(in)
sea level
(mb)
Rmks
8:53 pm EDT NE 4.6 10.00 Mostly Cloudy -- 41.0 30.0 65% 38 NA 30.22 1024.0
7:53 pm EDT N 4.6 10.00 Mostly Cloudy -- 41.0 30.0 65% 38 NA 30.20 1023.7
6:53 pm EDT NE 5.8 10.00 Overcast -- 44.0 28.9 55% 41 NA 30.19 1023.2
5:53 pm EDT N 6.9 10.00 A Few Clouds -- 45.0 28.9 54% 41 NA 30.19 1023.1
4:53 pm EDT NE 8.1 10.00 Mostly Cloudy -- 48.0 28.9 48% 44 NA 30.18 1022.7
3:53 pm EDT NE 8.1 10.00 Partly Cloudy -- 49.0 30.0 48% 46 NA 30.19 1022.9
2:53 pm EDT NE 5.8 10.00 Mostly Cloudy -- 49.0 30.0 48% 47 NA 30.20 1023.4
1:53 pm EDT N 8.1 10.00 Mostly Cloudy -- 46.0 30.0 54% 42 NA 30.23 1024.3
12:53 pm EDT N 10.4 G 16.1 10.00 A Few Clouds -- 45.0 28.9 54% 40 NA 30.25 1025.0
11:53 am EDT NE 10.4 10.00 Fair -- 44.0 30.0 58% 38 NA 30.26 1025.2
10:53 am EDT NE 6.9 10.00 Fair -- 41.0 32.0 70% 36 NA 30.27 1025.6
9:53 am EDT N 8.1 10.00 Fair -- 38.0 33.1 83% 32 NA 30.27 1025.6
8:53 am EDT N 4.6 10.00 Fair -- 34.0 30.9 89% 30 NA 30.25 1025.1
7:53 am EDT N 3.5 10.00 Fair -- 33.0 30.9 92% NA NA 30.24 1024.7
6:53 am EDT N 4.6 10.00 Fair -- 33.0 30.0 89% 29 NA 30.23 1024.4
5:53 am EDT NW 3.5 10.00 Fair -- 34.0 30.9 89% NA NA 30.21 1023.8
4:53 am EDT N 0.0 10.00 Fair -- 35.0 32.0 89% NA NA 30.20 1023.2
3:53 am EDT N 6.9 10.00 Fair -- 37.0 32.0 82% 32 NA 30.20 1022.9
2:53 am EDT N 9.2 10.00 Fair -- 38.0 33.1 83% 32 NA 30.18 1022.1
1:53 am EDT N 11.5 10.00 Fair -- 39.0 34.0 82% 32 NA 30.16 1021.5
12:53 am EDT NW 10.4 10.00 Mostly Cloudy -- 41.0 35.1 79% 35 NA 30.14 1020.7
11:53 pm EDT NW 10.4 10.00 Mostly Cloudy -- 42.0 35.1 76% 36 NA 30.13 1020.2
10:53 pm EDT NW 15.0 G 27.6 10.00 Overcast -- 43.0 37.9 82% 36 NA 30.10 1019.4
9:53 pm EDT NW 11.5 10.00 Overcast -- 44.0 39.0 83% 38 NA 30.07 1018.3

Regional Weather Observation


Kalamazoo/Battle Creek International Airport, MI (KAZO)

Mostly Cloudy
42.0 F

Grand Rapids, Gerald R. Ford International Airport, MI (KGRR)

Partly Cloudy
39.0 F

Ionia County Airport, MI (KY70)

Mostly Cloudy
37.0 F

Brooks Field Airport, MI (KRMY)

Mostly Cloudy
40.0 F

Charlotte, Fitch H Beach Airport, MI (KFPK)

Mostly Cloudy
39.0 F

Holland - West Michigan Regional Airport, MI (KBIV)

A Few Clouds
38.0 F